Time,TemperatureF,DewpointF,PressureIn,WindDirection,WindDirectionDegrees,WindSpeedMPH,WindSpeedGustMPH,Humidity,HourlyPrecipIn,Conditions,Clouds,dailyrainin,SoftwareType,DateUTC
2013-02-12 00:00:00,34.1,29.0,30.05,West,275,0.0,2.0,80,0.00,,,0.00,weatherlink.com 1.10,2013-02-12 05:00:00,
2013-02-12 00:15:00,34.0,28.0,30.05,NW,319,0.0,3.0,80,0.00,,,0.00,weatherlink.com 1.10,2013-02-12 05:15:00,
2013-02-12 00:30:00,34.1,28.0,30.06,NW,312,0.0,3.0,79,0.00,,,0.00,weatherlink.com 1.10,2013-02-12 05:30:00,
2013-02-12 00:45:00,34.1,28.0,30.07,NW,310,2.0,3.0,79,0.00,,,0.00,weatherlink.com 1.10,2013-02-12 05:45:00,
2013-02-12 01:00:00,33.8,28.0,30.07,NW,308,2.0,5.0,80,0.00,,,0.00,weatherlink.com 1.10,2013-02-12 06:00:00,
2013-02-12 01:15:00,34.0,28.0,30.07,NW,309,3.0,7.0,79,0.00,,,0.00,weatherlink.com 1.10,2013-02-12 06:15:00,
2013-02-12 01:30:00,33.5,28.0,30.07,NW,319,2.0,3.0,80,0.00,,,0.00,weatherlink.com 1.10,2013-02-12 06:30:00,
2013-02-12 01:45:00,33.4,28.0,30.07,NNW,347,1.0,5.0,81,0.00,,,0.00,weatherlink.com 1.10,2013-02-12 06:45:00,
2013-02-12 02:00:00,32.9,28.0,30.07,NNW,332,0.0,5.0,82,0.00,,,0.00,weatherlink.com 1.10,2013-02-12 07:00:00,
2013-02-12 02:15:00,32.7,28.0,30.08,NW,311,0.0,2.0,82,0.00,,,0.00,weatherlink.com 1.10,2013-02-12 07:15:00,
2013-02-12 02:30:00,32.5,28.0,30.08,West,276,0.0,3.0,82,0.00,,,0.00,weatherlink.com 1.10,2013-02-12 07:30:00,
2013-02-12 02:45:00,32.6,27.0,30.09,West,271,1.0,6.0,81,0.00,,,0.00,weatherlink.com 1.10,2013-02-12 07:45:00,
2013-02-12 03:00:00,32.0,27.0,30.09,NW,310,1.0,4.0,82,0.00,,,0.00,weatherlink.com 1.10,2013-02-12 08:00:00,
2013-02-12 03:16:00,31.7,27.0,30.09,WNW,302,1.0,4.0,83,0.00,,,0.00,weatherlink.com 1.10,2013-02-12 08:16:00,
2013-02-12 03:30:00,31.4,27.0,30.09,NW,308,2.0,4.0,83,0.00,,,0.00,weatherlink.com 1.10,2013-02-12 08:30:00,
2013-02-12 03:45:00,31.2,27.0,30.09,NW,305,0.0,6.0,84,0.00,,,0.00,weatherlink.com 1.10,2013-02-12 08:45:00,
2013-02-12 04:01:00,31.0,27.0,30.09,NW,323,1.0,4.0,84,0.00,,,0.00,weatherlink.com 1.10,2013-02-12 09:01:00,
2013-02-12 04:16:00,30.1,26.0,30.09,NW,319,4.0,4.0,85,0.00,,,0.00,weatherlink.com 1.10,2013-02-12 09:16:00,
2013-02-12 04:31:00,29.6,26.0,30.09,NNE,27,1.0,2.0,86,0.00,,,0.00,weatherlink.com 1.10,2013-02-12 09:31:00,
2013-02-12 04:46:00,29.8,26.0,30.09,NNW,328,0.0,4.0,86,0.00,,,0.00,weatherlink.com 1.10,2013-02-12 09:46:00,
2013-02-12 05:01:00,29.4,26.0,30.09,NW,315,0.0,1.0,86,0.00,,,0.00,weatherlink.com 1.10,2013-02-12 10:01:00,
2013-02-12 05:16:00,29.2,26.0,30.10,WNW,302,0.0,2.0,87,0.00,,,0.00,weatherlink.com 1.10,2013-02-12 10:16:00,
2013-02-12 05:31:00,28.6,25.0,30.10,WNW,284,3.0,3.0,87,0.00,,,0.00,weatherlink.com 1.10,2013-02-12 10:31:00,
2013-02-12 05:46:00,28.3,25.0,30.10,NW,305,2.0,4.0,87,0.00,,,0.00,weatherlink.com 1.10,2013-02-12 10:46:00,
2013-02-12 06:01:00,27.9,25.0,30.10,NNW,332,0.0,3.0,88,0.00,,,0.00,weatherlink.com 1.10,2013-02-12 11:01:00,
2013-02-12 06:16:00,27.7,25.0,30.10,WNW,300,0.0,1.0,88,0.00,,,0.00,weatherlink.com 1.10,2013-02-12 11:16:00,
2013-02-12 06:31:00,27.1,24.0,30.10,NW,308,0.0,3.0,89,0.00,,,0.00,weatherlink.com 1.10,2013-02-12 11:31:00,
2013-02-12 06:46:00,27.0,24.0,30.10,NW,308,0.0,0.0,88,0.00,,,0.00,weatherlink.com 1.10,2013-02-12 11:46:00,
2013-02-12 07:01:00,27.0,24.0,30.11,NW,305,0.0,4.0,89,0.00,,,0.00,weatherlink.com 1.10,2013-02-12 12:01:00,
2013-02-12 07:16:00,26.4,24.0,30.11,NW,305,0.0,1.0,89,0.00,,,0.00,weatherlink.com 1.10,2013-02-12 12:16:00,
2013-02-12 07:31:00,26.1,23.0,30.11,NNW,328,0.0,1.0,89,0.00,,,0.00,weatherlink.com 1.10,2013-02-12 12:31:00,
2013-02-12 07:46:00,26.0,24.0,30.11,NNW,327,0.0,1.0,90,0.00,,,0.00,weatherlink.com 1.10,2013-02-12 12:46:00,
2013-02-12 08:01:00,26.0,24.0,30.11,NW,319,0.0,1.0,90,0.00,,,0.00,weatherlink.com 1.10,2013-02-12 13:01:00,
2013-02-12 08:16:00,26.4,24.0,30.11,NW,305,0.0,1.0,90,0.00,,,0.00,weatherlink.com 1.10,2013-02-12 13:16:00,
2013-02-12 08:31:00,27.7,25.0,30.12,NNW,343,1.0,3.0,90,0.00,,,0.00,weatherlink.com 1.10,2013-02-12 13:31:00,
2013-02-12 08:46:00,28.9,26.0,30.12,NW,316,1.0,3.0,88,0.00,,,0.00,weatherlink.com 1.10,2013-02-12 13:46:00,
2013-02-12 09:01:00,29.9,26.0,30.11,North,355,0.0,3.0,85,0.00,,,0.00,weatherlink.com 1.10,2013-02-12 14:01:00,
2013-02-12 09:16:00,30.7,26.0,30.11,NNW,336,1.0,4.0,83,0.00,,,0.00,weatherlink.com 1.10,2013-02-12 14:16:00,
2013-02-12 09:31:00,31.6,26.0,30.10,North,10,1.0,6.0,80,0.00,,,0.00,weatherlink.com 1.10,2013-02-12 14:31:00,
2013-02-12 09:46:00,32.5,27.0,30.10,SSW,212,1.0,3.0,79,0.00,,,0.00,weatherlink.com 1.10,2013-02-12 14:46:00,
2013-02-12 10:01:00,34.4,27.0,30.12,West,274,0.0,2.0,74,0.00,,,0.00,weatherlink.com 1.10,2013-02-12 15:01:00,
2013-02-12 10:16:00,34.6,26.0,30.12,North,6,2.0,3.0,71,0.00,,,0.00,weatherlink.com 1.10,2013-02-12 15:16:00,
2013-02-12 10:31:00,34.9,27.0,30.11,WSW,253,0.0,3.0,74,0.00,,,0.00,weatherlink.com 1.10,2013-02-12 15:31:00,
2013-02-12 10:46:00,35.7,26.0,30.11,North,355,0.0,5.0,68,0.00,,,0.00,weatherlink.com 1.10,2013-02-12 15:46:00,
2013-02-12 11:01:00,37.3,27.0,30.12,SSE,155,2.0,4.0,67,0.00,,,0.00,weatherlink.com 1.10,2013-02-12 16:01:00,
2013-02-12 11:16:00,37.6,27.0,30.11,NW,322,1.0,4.0,66,0.00,,,0.00,weatherlink.com 1.10,2013-02-12 16:16:00,
2013-02-12 11:31:00,39.5,28.0,30.10,NW,321,3.0,4.0,63,0.00,,,0.00,weatherlink.com 1.10,2013-02-12 16:31:00,
2013-02-12 11:46:00,39.9,28.0,30.08,West,266,1.0,5.0,63,0.00,,,0.00,weatherlink.com 1.10,2013-02-12 16:46:00,
2013-02-12 12:01:00,40.9,27.0,30.07,NW,314,3.0,5.0,59,0.00,,,0.00,weatherlink.com 1.10,2013-02-12 17:01:00,
2013-02-12 12:16:00,41.9,27.0,30.06,NW,309,4.0,5.0,57,0.00,,,0.00,weatherlink.com 1.10,2013-02-12 17:16:00,
2013-02-12 12:32:00,42.9,28.0,30.05,SW,221,0.0,6.0,57,0.00,,,0.00,weatherlink.com 1.10,2013-02-12 17:32:00,
2013-02-12 13:02:00,44.1,29.0,30.06,NW,318,2.0,7.0,55,0.00,,,0.00,weatherlink.com 1.10,2013-02-12 18:02:00,
2013-02-12 13:17:00,44.7,29.0,30.06,SSE,158,0.0,7.0,54,0.00,,,0.00,weatherlink.com 1.10,2013-02-12 18:17:00,
2013-02-12 13:32:00,46.2,29.0,30.06,WSW,252,2.0,10.0,51,0.00,,,0.00,weatherlink.com 1.10,2013-02-12 18:32:00,
2013-02-12 13:47:00,45.8,27.0,30.06,West,270,1.0,9.0,49,0.00,,,0.00,weatherlink.com 1.10,2013-02-12 18:47:00,
2013-02-12 14:02:00,44.9,28.0,30.05,West,276,1.0,6.0,52,0.00,,,0.00,weatherlink.com 1.10,2013-02-12 19:02:00,
2013-02-12 14:17:00,45.7,27.0,30.04,ESE,117,1.0,6.0,49,0.00,,,0.00,weatherlink.com 1.10,2013-02-12 19:17:00,
2013-02-12 14:32:00,45.1,27.0,30.03,NNW,327,2.0,6.0,50,0.00,,,0.00,weatherlink.com 1.10,2013-02-12 19:32:00,
2013-02-12 14:47:00,45.6,30.0,30.03,North,8,3.0,5.0,54,0.00,,,0.00,weatherlink.com 1.10,2013-02-12 19:47:00,
2013-02-12 15:02:00,45.2,28.0,30.04,NNW,337,2.0,5.0,51,0.00,,,0.00,weatherlink.com 1.10,2013-02-12 20:02:00,
2013-02-12 15:17:00,44.6,29.0,30.04,NW,325,2.0,8.0,54,0.00,,,0.00,weatherlink.com 1.10,2013-02-12 20:17:00,
2013-02-12 15:32:00,44.8,28.0,30.04,NNW,333,3.0,7.0,53,0.00,,,0.00,weatherlink.com 1.10,2013-02-12 20:32:00,
2013-02-12 15:47:00,45.2,30.0,30.03,SE,131,0.0,3.0,55,0.00,,,0.00,weatherlink.com 1.10,2013-02-12 20:47:00,
2013-02-12 16:02:00,45.8,29.0,30.02,SW,221,4.0,7.0,53,0.00,,,0.00,weatherlink.com 1.10,2013-02-12 21:02:00,
2013-02-12 16:17:00,45.7,30.0,30.01,NW,314,1.0,7.0,54,0.00,,,0.00,weatherlink.com 1.10,2013-02-12 21:17:00,
2013-02-12 16:32:00,45.9,30.0,30.00,WSW,253,0.0,5.0,54,0.00,,,0.00,weatherlink.com 1.10,2013-02-12 21:32:00,
2013-02-12 16:47:00,45.1,30.0,29.99,NNW,327,0.0,4.0,55,0.00,,,0.00,weatherlink.com 1.10,2013-02-12 21:47:00,
2013-02-12 17:02:00,44.6,30.0,29.98,SE,131,0.0,4.0,58,0.00,,,0.00,weatherlink.com 1.10,2013-02-12 22:02:00,
2013-02-12 17:17:00,43.6,30.0,29.97,West,281,1.0,6.0,58,0.00,,,0.00,weatherlink.com 1.10,2013-02-12 22:17:00,
2013-02-12 17:32:00,42.9,30.0,29.98,NNW,333,2.0,4.0,61,0.00,,,0.00,weatherlink.com 1.10,2013-02-12 22:32:00,
2013-02-12 17:47:00,42.5,30.0,29.97,NNW,335,1.0,3.0,62,0.00,,,0.00,weatherlink.com 1.10,2013-02-12 22:47:00,
2013-02-12 18:02:00,41.9,30.0,29.98,WNW,302,1.0,5.0,63,0.00,,,0.00,weatherlink.com 1.10,2013-02-12 23:02:00,
2013-02-12 18:17:00,41.1,30.0,29.97,NNW,334,0.0,2.0,64,0.00,,,0.00,weatherlink.com 1.10,2013-02-12 23:17:00,
2013-02-12 18:32:00,40.4,29.0,29.98,NNW,334,0.0,1.0,65,0.00,,,0.00,weatherlink.com 1.10,2013-02-12 23:32:00,
2013-02-12 18:47:00,40.1,29.0,29.98,NNW,347,0.0,1.0,66,0.00,,,0.00,weatherlink.com 1.10,2013-02-12 23:47:00,
2013-02-12 19:02:00,39.4,29.0,29.97,NW,322,0.0,0.0,67,0.00,,,0.00,weatherlink.com 1.10,2013-02-13 00:02:00,
2013-02-12 19:17:00,38.8,29.0,29.96,NW,322,0.0,1.0,69,0.00,,,0.00,weatherlink.com 1.10,2013-02-13 00:17:00,
2013-02-12 19:32:00,38.7,30.0,29.96,NNW,345,0.0,1.0,70,0.00,,,0.00,weatherlink.com 1.10,2013-02-13 00:32:00,
2013-02-12 19:47:00,38.5,29.0,29.96,North,354,0.0,2.0,70,0.00,,,0.00,weatherlink.com 1.10,2013-02-13 00:47:00,
2013-02-12 20:02:00,37.9,29.0,29.95,North,354,0.0,0.0,70,0.00,,,0.00,weatherlink.com 1.10,2013-02-13 01:02:00,
2013-02-12 20:17:00,37.8,30.0,29.95,North,356,0.0,1.0,72,0.00,,,0.00,weatherlink.com 1.10,2013-02-13 01:17:00,
2013-02-12 20:32:00,37.9,30.0,29.94,North,355,0.0,0.0,72,0.00,,,0.00,weatherlink.com 1.10,2013-02-13 01:32:00,
2013-02-12 20:47:00,37.6,29.0,29.93,North,355,0.0,0.0,72,0.00,,,0.00,weatherlink.com 1.10,2013-02-13 01:47:00,
2013-02-12 21:02:00,37.7,29.0,29.92,North,356,0.0,1.0,72,0.00,,,0.00,weatherlink.com 1.10,2013-02-13 02:02:00,
2013-02-12 21:17:00,37.1,30.0,29.92,North,356,0.0,0.0,74,0.00,,,0.00,weatherlink.com 1.10,2013-02-13 02:17:00,
2013-02-12 21:32:00,36.7,29.0,29.92,North,355,0.0,0.0,74,0.00,,,0.00,weatherlink.com 1.10,2013-02-13 02:32:00,
2013-02-12 21:47:00,36.6,29.0,29.92,North,355,0.0,0.0,75,0.00,,,0.00,weatherlink.com 1.10,2013-02-13 02:47:00,
2013-02-12 22:02:00,36.6,29.0,29.93,North,355,0.0,0.0,75,0.00,,,0.00,weatherlink.com 1.10,2013-02-13 03:02:00,
2013-02-12 22:17:00,36.3,29.0,29.92,North,355,0.0,1.0,76,0.00,,,0.00,weatherlink.com 1.10,2013-02-13 03:17:00,
2013-02-12 22:32:00,36.0,29.0,29.92,North,355,0.0,1.0,76,0.00,,,0.00,weatherlink.com 1.10,2013-02-13 03:32:00,
2013-02-12 22:47:00,35.3,29.0,29.91,North,355,0.0,1.0,77,0.00,,,0.00,weatherlink.com 1.10,2013-02-13 03:47:00,
2013-02-12 23:02:00,34.4,29.0,29.91,North,354,0.0,1.0,80,0.00,,,0.00,weatherlink.com 1.10,2013-02-13 04:02:00,
2013-02-12 23:18:00,33.8,29.0,29.91,NNW,328,0.0,1.0,81,0.00,,,0.00,weatherlink.com 1.10,2013-02-13 04:18:00,
2013-02-12 23:33:00,34.0,28.0,29.90,WNW,296,0.0,2.0,80,0.00,,,0.00,weatherlink.com 1.10,2013-02-13 04:33:00,
2013-02-12 23:48:00,34.1,29.0,29.89,NE,43,0.0,4.0,80,0.00,,,0.00,weatherlink.com 1.10,2013-02-13 04:48:00,